Weather History for Salina, KS

Change the Weather History Date:

Monday, January 28, 2013

  Actual Average Record
Temperature  
Mean Temperature 53 °F 32 °F  
Max Temperature 74 °F 43 °F 74 °F (2013)
Min Temperature 32 °F 21 °F -16 °F (1948)
Degree Days  
Heating Degree Days 12 33  
Month to date heating degree days 879 950  
Since 1 July heating degree days 2656 2914  
Cooling Degree Days 0 0  
Month to date cooling degree days 0 0  
Year to date cooling degree days 0 0  
Growing Degree Days 2 (Base 50)    
Moisture  
Dew Point 39 °F    
Average Humidity 63    
Maximum Humidity 96    
Minimum Humidity 29    
Precipitation  
Precipitation 0.01 in 0.03 in 0.67 in (2001)
Month to date precipitation 0.87 0.55  
Year to date precipitation 0.87 0.55  
Sea Level Pressure  
Sea Level Pressure 29.74 in    
Wind  
Wind Speed 11 mph (SSW)    
Max Wind Speed 28 mph    
Max Gust Speed 36 mph    
Visibility 5 miles    
Events Fog    
T = Trace of Precipitation, MM = Missing Value Source: NWS Daily Summary

Daily Weather History Graph

Daily Weather History Graph

Search for Another Location

Airport:

Trip Planner

Search our weather history database for the weather conditions in past years. The results will help you decide how hot, cold, wet, or windy it might be!

Date:

Astronomy

Jan. 28, 2013 Rise Set
Actual Time 7:39 AM CST 5:47 PM CST
Civil Twilight 7:11 AM CST 6:16 PM CST
Nautical Twilight 6:39 AM CST 6:48 PM CST
Astronomical Twilight 6:07 AM CST 7:19 PM CST
Moon 7:42 PM CST (1/28) 8:07 AM CST (1/28)
Length of Visible Light 11h 04m
Length of Day
10h 08m
Full, 98% of the Moon is Illuminated
Jan 28
Full
Feb 3
Last Quarter
Feb 10
New
Feb 17
First Quarter
Feb 25
Full

Hourly Weather History & Observations

Time (CST) Temp. Windchill Dew Point Humidity Pressure Visibility Wind Dir Wind Speed Gust Speed Precip Events Conditions
12:53 AM 35.1 °F - 32.0 °F 89% 29.84 in 5.0 mi Calm Calm - N/A   Clear
1:53 AM 34.0 °F - 32.0 °F 92% 29.83 in 4.0 mi Calm Calm - N/A   Clear
2:53 AM 34.0 °F 31.0 °F 30.9 °F 89% 29.81 in 4.0 mi North 3.5 mph - N/A   Scattered Clouds
3:00 AM 33.8 °F - 30.2 °F 87% 29.81 in 3.0 mi Calm Calm - N/A   Mostly Cloudy
3:22 AM 33.8 °F - 30.2 °F 87% 29.80 in 2.5 mi Calm Calm - N/A   Scattered Clouds
3:27 AM 33.8 °F - 30.2 °F 87% 29.80 in 1.0 mi Calm Calm - N/A   Mist
3:34 AM 33.8 °F - 30.2 °F 87% 29.80 in 0.5 mi Calm Calm - N/A Fog Fog
3:40 AM 33.8 °F - 30.2 °F 87% 29.80 in 1.0 mi Calm Calm - N/A   Clear
3:47 AM 32.0 °F 28.7 °F 30.2 °F 93% 29.80 in 0.8 mi NNW 3.5 mph - N/A   Mist
3:53 AM 32.0 °F 27.5 °F 30.0 °F 92% 29.80 in 0.5 mi North 4.6 mph - N/A Fog Fog
4:14 AM 32.0 °F 28.7 °F 30.2 °F 93% 29.80 in 0.2 mi NW 3.5 mph - N/A Fog Fog
4:46 AM 32.0 °F 28.7 °F 30.2 °F 93% 29.79 in 0.2 mi NNW 3.5 mph - N/A Fog Fog
4:53 AM 32.0 °F - 30.9 °F 96% 29.80 in 0.2 mi Calm Calm - N/A Fog Fog
5:02 AM 33.8 °F - 32.0 °F 93% 29.80 in 0.8 mi Calm Calm - N/A   Mist
5:09 AM 33.8 °F - 32.0 °F 93% 29.79 in 2.0 mi Calm Calm - N/A   Overcast
5:53 AM 35.1 °F - 33.1 °F 92% 29.80 in 1.5 mi Calm Calm - N/A   Overcast
6:11 AM 35.6 °F - 33.8 °F 93% 29.78 in 1.0 mi Calm Calm - N/A   Overcast
6:33 AM 37.4 °F - 35.6 °F 93% 29.78 in 0.8 mi Calm Calm - N/A   Overcast
6:53 AM 37.0 °F - 35.1 °F 93% 29.80 in 0.5 mi Calm Calm - N/A Fog Fog
7:53 AM 37.9 °F - 36.0 °F 93% 29.81 in 0.2 mi Calm Calm - N/A Fog Fog
8:53 AM 41.0 °F 39.0 °F 39.9 °F 96% 29.81 in 0.0 mi South 3.5 mph - N/A Fog Fog
9:53 AM 45.0 °F 40.6 °F 43.0 °F 93% 29.79 in 0.8 mi South 8.1 mph - N/A   Mist
9:58 AM 44.6 °F 40.7 °F 42.8 °F 93% 29.78 in 4.0 mi SSW 6.9 mph - N/A   Mostly Cloudy
10:11 AM 46.4 °F 41.9 °F 44.6 °F 93% 29.78 in 5.0 mi SSW 9.2 mph - N/A   Scattered Clouds
10:53 AM 53.1 °F - 42.1 °F 66% 29.79 in 10.0 mi SSW 16.1 mph - N/A   Clear
11:53 AM 62.1 °F - 43.0 °F 50% 29.75 in 10.0 mi South 12.7 mph - N/A   Clear
12:53 PM 68.0 °F - 41.0 °F 37% 29.69 in 10.0 mi South 18.4 mph 25.3 mph N/A   Clear
1:53 PM 72.0 °F - 42.1 °F 34% 29.65 in 10.0 mi South 19.6 mph 28.8 mph 0.01 in   Clear
2:53 PM 72.0 °F - 39.0 °F 30% 29.64 in 10.0 mi South 21.9 mph 34.5 mph N/A   Clear
3:53 PM 73.9 °F - 39.9 °F 29% 29.61 in 10.0 mi South 18.4 mph 28.8 mph N/A   Clear
4:53 PM 72.0 °F - 52.0 °F 49% 29.59 in 10.0 mi South 17.3 mph 29.9 mph N/A   Clear
5:53 PM 69.1 °F - 53.1 °F 57% 29.59 in 10.0 mi South 13.8 mph 23.0 mph N/A   Partly Cloudy
6:53 PM 66.9 °F - 55.0 °F 66% 29.59 in 10.0 mi South 15.0 mph 23.0 mph N/A   Clear
7:53 PM 66.9 °F - 55.9 °F 68% 29.59 in 10.0 mi South 18.4 mph 29.9 mph N/A   Clear
8:53 PM 66.0 °F - 55.0 °F 68% 29.58 in 10.0 mi South 20.7 mph 31.1 mph N/A   Clear
9:53 PM 64.9 °F - 57.0 °F 75% 29.58 in 10.0 mi South 21.9 mph 31.1 mph N/A   Partly Cloudy
10:53 PM 64.9 °F - 57.9 °F 78% 29.56 in 10.0 mi South 20.7 mph 34.5 mph N/A   Clear
11:53 PM 64.0 °F - 57.0 °F 78% 29.56 in 10.0 mi SSW 19.6 mph 28.8 mph N/A   Clear